Volver al catálogo

STARLINK-34153

ActivoComunicacionesVLEO
NORAD 63967·PAYLOAD·🇺🇸 United States

Lanzado May 13, 2025 desde Cape Canaveral Space Force Station

Loading…

Próximos Pases (próximas 24 horas)

TLE

ActualizadoSource: CelesTrak SupGP

Época: Sep 14, 2026, 21:27 UTC

1 63967C 25099R   26257.89423611 -.00008719  00000+0 -31598-3 0  2574
2 63967  43.0015 187.3689 0001434 259.6180 199.7970 15.27564367    10

Sigue STARLINK-34153 en tiempo real con AllMySat

Download on the App Store